Miscellaneous Local Product
Issued by NWS Hastings, NE

Home | Current Version | Previous Version | Text Only | Print | Product List | Glossary Off
Versions: 1 2 3 4 5 6 7 8 9 10 11 12 13 14 15 16 17 18 19 20 21 22 23 24 25 26 27 28 29 30 31 32 33 34 35 36 37 38 39 40 41 42 43 44 45 46 47 48 49 50

000
AXUS43 KGID 300102
MISGRI

GID CWA HOURLY WEATHER ROUNDUP
NATIONAL WEATHER SERVICE HASTINGS NE
800 PM CDT WED MAR 29 2017

NOTE: "FAIR" INDICATES FEW OR NO CLOUDS BELOW 12,000 FEET WITH NO
SIGNIFICANT WEATHER AND/OR OBSTRUCTIONS TO VISIBILITY.

...SOUTH CENTRAL NEBRASKA...

CITY           SKY/WX    TMP DP  RH WIND       PRES   REMARKS
GRAND ISLAND   LGT RAIN  40  40 100 N17       29.86S WCI  31
HASTINGS       LGT RAIN  41  38  89 N23G30    29.84F
KEARNEY        CLOUDY    39  34  81 N22G31    29.88S WCI  29
ORD            LGT RAIN  40  36  86 N16       29.92S WCI  31
YORK           LGT RAIN  41  41 100 NE21G26   29.83S
AURORA         LGT RAIN  40  40  99 NE18G28   29.84S WCI  31
LEXINGTON      LGT RAIN  42  39  90 N21G28    29.91S
HOLDREGE       RAIN      38  36  91 N23G31    29.87S WCI  28
HEBRON         CLOUDY    42  40  95 N17G23    29.76F

...NEBRASKA PANHANDLE...

CITY           SKY/WX    TMP DP  RH WIND       PRES   REMARKS
CHADRON        CLEAR     52  39  61 E10       29.95S
ALLIANCE       CLEAR     46  37  71 E10       29.95S
SCOTTSBLUFF    CLEAR     51  38  60 E14       29.95R
SIDNEY         CLEAR     46  37  71 E10       29.97S

...WESTERN AND NORTH CENTRAL NEBRASKA...

CITY           SKY/WX    TMP DP  RH WIND       PRES   REMARKS
VALENTINE      CLOUDY    44  36  73 E14       30.00S
AINSWORTH      CLOUDY    42  38  84 NE9       29.99F
ONEILL         CLOUDY    40  39  97 NE14      29.98S WCI  32
BROKEN BOW     LGT RAIN  41  38  89 N15G23    29.92F
IMPERIAL       CLOUDY    45  38  76 N12       29.96R
NORTH PLATTE   CLOUDY    45  37  73 N15       29.95R
MCCOOK         CLOUDY    44  41  89 N15       29.91R

...EASTERN NEBRASKA...

CITY           SKY/WX    TMP DP  RH WIND       PRES   REMARKS
NORFOLK        CLOUDY    40  37  89 NE14G24   29.90S WCI  32
SO SIOUX CITY  CLOUDY    41  38  89 E21G31    29.93S
TEKAMAH        LGT RAIN  42  38  85 NE22G30   29.87F
COLUMBUS       CLOUDY    41  36  81 NE17G24   29.88R
ALBION         LGT RAIN  42  38  86 NE16      29.91F
OMAHA EPPLEY   LGT RAIN  42  37  82 NE18G28   29.85R FOG
OFFUTT AFB     LGT RAIN  42  40  92 N16G23    29.81F FOG
MILLARD        DRIZZLE   43  41  92 NE10G18   29.83F
LINCOLN        CLOUDY    42  40  92 NE25G36   29.81F
NEBRASKA CITY  CLOUDY    43  43 100 NE18G24   29.75F
BEATRICE       CLOUDY    43  42  99 NE21G29   29.73F
FALLS CITY     CLOUDY    49  47  93 NE14      29.69F

...NORTHERN KANSAS...

CITY           SKY/WX    TMP DP  RH WIND       PRES   REMARKS
GOODLAND       CLOUDY    43  38  82 N14G26    29.93R
HILL CITY      LGT RAIN  39  38  96 N18       29.87S FOG     WCI  30
NORTON         RAIN      37  34  87 N20       29.88  WCI  27
PHILLIPSBURG   DRIZZLE   39  39 100 NW25G33   29.84R WCI  28
HAYS             N/A     40  38  93 NW23G31   29.78S WCI  30
RUSSELL        HVY RAIN  42  40  92 N25G33    29.74R
CONCORDIA      LGT RAIN  42  42 100 N14       29.72S
SALINA         LGT RAIN  45  43  93 N18       29.67S
TOPEKA         TSTM      57  56  96 NE8       29.62R



USA.gov is the U.S. government's official web portal to all federal, state and local government web resources and services.